Location: Winter Haven
(28.0220°N, 81.7330°W)
Time: 07:34:22
(UTC-04:00)

Amateur Radio Satellites - All Passes

Search period start: 26 May 2015 07:04
Search period end: 27 May 2015 07:04
Location: Winter Haven, 28.0220°N, 81.7330°W

Satellite Date Start Highest point End Downlink Frequencies (MHz)
Time Altitude Azimuth
CUTE-I 26 May 07:08:34 07:13:26 35° 98° (E) 07:18:21 437.470
AO-7 26 May 07:12:19 07:18:27 22° 297° (WNW) 07:24:11 29.400- 29.500
M-CUBED/EXP-1 PRIME 26 May 07:14:24 07:17:54 24° 70° (ENE) 07:21:17 437.505
AUBIESAT-1 26 May 07:23:27 07:27:02 27° 71° (ENE) 07:30:30 437.475
Cosmos 2491 26 May 07:24:26 07:33:05 59° 81° (E) 07:41:44 435.465 / 435.565
Cubesat XI-IV 26 May 07:28:31 07:33:48 59° 101° (E) 07:39:06 437.490
STRAND 1 26 May 07:30:44 07:35:40 55° 75° (ENE) 07:40:39 437.568
VERMONT LUNAR 26 May 07:59:00 08:01:53 30° 25° (NNE) 08:04:46 437.305
YUBILEINY 26 May 08:07:01 08:15:38 65° 92° (E) 08:24:16 435.215
ISS 26 May 08:10:50 08:14:05 70° 45° (NE) 08:17:20 145.825
PHONESAT 2.4 26 May 08:16:05 08:18:21 16° 16° (NNE) 08:20:38 2401.200-2431.200
CUBESAT XI-V 26 May 08:16:30 08:19:23 16° 267° (W) 08:22:03 437.345
PRISM 26 May 08:27:39 08:30:52 22° 264° (W) 08:34:00 437.425
AIST 1 26 May 08:48:16 08:52:39 71° 84° (E) 08:57:02
CUTE-I 26 May 08:49:16 08:53:18 21° 289° (WNW) 08:57:10 437.470
M-CUBED/EXP-1 PRIME 26 May 08:49:16 08:52:39 21° 259° (WSW) 08:55:45 437.505
HO-68 26 May 08:50:51 08:55:07 18° 93° (E) 08:59:48 435.675
AUBIESAT-1 26 May 08:58:39 09:01:45 18° 259° (W) 09:04:35 437.475
RS-15 26 May 09:03:43 09:14:11 57° 111° (ESE) 09:24:52 29.354- 29.394
Cubesat XI-IV 26 May 09:10:59 09:13:29 13° 292° (WNW) 09:15:39 437.490
STRAND 1 26 May 09:13:20 09:15:15 12° 268° (W) 09:16:46 437.568
DOVE 4 26 May 09:14:46 09:18:27 21° 93° (E) 09:22:08 437.250
COMPASS 1 26 May 09:17:57 09:18:55 11° 92° (E) 09:20:12 437.405
Cosmos 2491 26 May 09:22:57 09:29:26 22° 274° (W) 09:35:24 435.465 / 435.565
AAUSAT CUBESAT 2 26 May 09:29:58 09:31:57 14° 93° (E) 09:34:10 437.432
VERMONT LUNAR 26 May 09:36:15 09:39:02 28° 218° (SW) 09:41:49 437.305
BRITE-PL 26 May 09:38:53 09:44:29 74° 284° (WNW) 09:49:46 437.365/2234.400
GOMX 1 26 May 09:46:12 09:51:32 83° 103° (ESE) 09:56:31 467.674
PHONESAT 2.4 26 May 09:53:25 09:56:52 72° 32° (NNE) 10:00:19 2401.200-2431.200
Cosmos 2504 26 May 09:56:31 10:03:29 30° 90° (E) 10:10:21 435.465 / 435.565
CUBEBUG 2 26 May 09:58:58 10:00:19 12° 91° (E) 10:01:57 437.445
YUBILEINY 26 May 10:06:49 10:13:09 20° 289° (WNW) 10:18:59 435.215
CANX-2 26 May 10:08:21 10:12:33 78° 281° (W) 10:16:44 2200.000
CUTE 1.7 + AOD 2 26 May 10:12:02 10:16:15 79° 281° (WNW) 10:20:26 437.475
JUGNU 26 May 10:13:27 10:17:49 21° 165° (SSE) 10:22:13 437.505
Oscar 11 26 May 10:17:10 10:20:36 24° 96° (E) 10:24:06 145.826/435.025
TIGRISAT 26 May 10:23:16 10:25:48 15° 71° (ENE) 10:28:35 435.000
CINEMA 3 26 May 10:35:39 10:40:20 85° 101° (ESE) 10:44:45 145.822/145.860
SEEDS 26 May 10:36:12 10:40:12 46° 284° (WNW) 10:44:11 437.485
HO-68 26 May 10:36:17 10:43:20 63° 287° (WNW) 10:50:20 435.675
UNISAT 6 26 May 10:41:56 10:45:47 26° 73° (ENE) 10:49:42 437.425
UWE-3 26 May 10:45:52 10:49:53 37° 98° (E) 10:53:49 435.000/436.395/437.385
COMPASS 1 26 May 10:50:57 10:54:48 38° 285° (WNW) 10:58:37 437.405
DOVE 4 26 May 10:51:53 10:56:14 29° 288° (WNW) 11:00:18 437.250
QB50P1 26 May 10:55:48 10:57:55 14° 71° (ENE) 11:00:16 145.935-145.965
POLYITAN 1 26 May 10:57:05 10:59:26 15° 72° (ENE) 11:02:00 437.675
FUNcube-1 26 May 10:58:11 11:02:11 39° 98° (E) 11:06:07 145.935
AAUSAT CUBESAT 2 26 May 11:03:59 11:07:39 31° 285° (WNW) 11:11:16 437.432
50 SAT 26 May 11:14:04 11:15:12 11° 93° (E) 11:16:34 437.505
RS-15 26 May 11:17:28 11:27:05 33° 310° (NW) 11:36:35 29.354- 29.394
PCSat 26 May 11:20:38 11:25:54 52° 63° (ENE) 11:31:10 145.827
ANTELSAT 26 May 11:24:17 11:28:59 85° 81° (E) 11:33:42 437.575/2403.000
NANOSAT C BR1 26 May 11:25:40 11:29:28 33° 74° (ENE) 11:33:20 145.865
SRMSAT 26 May 11:29:29 11:33:15 18° 163° (SSE) 11:37:06 437.500
QB50P2 26 May 11:32:49 11:36:51 43° 75° (ENE) 11:40:56 145.880/145.840
PHONESAT 2.4 26 May 11:33:06 11:34:43 13° 221° (SW) 11:36:13 2401.200-2431.200
CUBEBUG 2 26 May 11:33:09 11:37:16 39° 285° (WNW) 11:41:14 437.445
DELFI C3 26 May 11:36:35 11:40:22 40° 284° (WNW) 11:44:07 145.870
ZACube-1 26 May 11:38:12 11:42:26 57° 283° (WNW) 11:46:31 437.345
HUMSAT D 26 May 11:38:59 11:43:03 55° 100° (E) 11:47:04 437.325/437.525
UKube-1 26 May 11:41:36 11:45:53 57° 100° (E) 11:50:10 .
POPSAT HIP 1 26 May 11:45:06 11:49:18 61° 77° (ENE) 11:53:33 437.405
DUCHIFAT 1 26 May 11:47:43 11:51:55 64° 77° (ENE) 11:56:09 145.980
Cosmos 2504 26 May 11:48:41 11:56:43 42° 281° (W) 12:04:09 435.465 / 435.565
DX 1 26 May 11:49:04 11:53:28 79° 102° (ESE) 11:57:51 434.975-435.025
Oscar 11 26 May 11:53:28 11:56:39 20° 287° (WNW) 11:59:42 145.826/435.025
TIGRISAT 26 May 11:57:51 12:02:16 39° 262° (W) 12:06:38 435.000
VELOX 1 26 May 12:00:10 12:04:29 47° 100° (E) 12:08:47 145.980
ESTCUBE 1 26 May 12:00:16 12:04:00 26° 96° (E) 12:07:50 437.505/2401.250
JUGNU 26 May 12:01:07 12:06:26 34° 173° (S) 12:11:44 437.505
CUBEBUG 1 26 May 12:01:23 12:04:50 22° 96° (E) 12:08:21 437.445
BUGSAT 1 26 May 12:14:27 12:18:33 87° 257° (WSW) 12:22:45 437.445
UNISAT 6 26 May 12:18:48 12:22:30 22° 265° (W) 12:26:04 437.425
UWE-3 26 May 12:24:06 12:26:06 13° 290° (WNW) 12:27:50 435.000/436.395/437.385
QB50P1 26 May 12:29:38 12:33:32 34° 262° (W) 12:37:25 145.935-145.965
POLYITAN 1 26 May 12:31:14 12:35:06 32° 262° (W) 12:38:57 437.675
AISAT 26 May 12:31:24 12:35:52 66° 284° (WNW) 12:40:18 437.250
CUSAT 1 26 May 12:31:56 12:36:24 19° 85° (E) 12:41:47 437.405
FUNcube-1 26 May 12:36:32 12:38:11 12° 290° (WNW) 12:39:33 145.935
GONETS M04 26 May 12:38:59 12:44:20 19° 85° (E) 12:50:15
SPROUT 26 May 12:43:47 12:46:31 17° 94° (E) 12:49:24 437.525
50 SAT 26 May 12:46:36 12:50:03 31° 285° (WNW) 12:53:26 437.505
SO-50 26 May 12:48:21 12:52:15 23° 55° (NE) 12:56:11 436.795
NANOSAT C BR1 26 May 13:03:06 13:05:25 14° 267° (W) 13:07:31 145.865
PCSat 26 May 13:06:03 13:08:57 14° 254° (WSW) 13:11:31 145.827
TISAT 1 26 May 13:09:27 13:12:55 24° 96° (E) 13:16:26 437.305
QB50P2 26 May 13:12:00 13:13:00 10° 268° (W) 13:13:41 145.880/145.840
SRMSAT 26 May 13:16:50 13:22:00 31° 171° (S) 13:27:10 437.500
DANDE 26 May 13:35:53 13:42:02 52° 91° (E) 13:49:45 436.750
ESTCUBE 1 26 May 13:37:20 13:40:45 21° 288° (WNW) 13:44:01 437.505/2401.250
CUBEBUG 1 26 May 13:37:34 13:41:05 23° 287° (WNW) 13:44:30 437.445
VELOX 1 26 May 13:39:07 13:40:40 11° 290° (WNW) 13:41:56 145.980
JUGNU 26 May 13:49:43 13:55:07 37° 183° (S) 14:00:29 437.505
SWISSCUBE 26 May 13:57:48 14:00:01 14° 93° (E) 14:02:33 437.505
CUSAT 1 26 May 14:11:35 14:18:16 63° 281° (W) 14:26:17 437.405
SPROUT 26 May 14:18:54 14:22:38 28° 286° (WNW) 14:26:16 437.525
Oscar 19 26 May 14:22:29 14:27:41 83° 258° (WSW) 14:32:55 437.125/150
SO-50 26 May 14:28:31 14:32:49 30° 249° (WSW) 14:36:58 436.795
Cosmos 2499 26 May 14:30:07 14:34:38 17° 87° (E) 14:39:32 435.465 / 435.565
GONETS M04 26 May 14:31:45 14:40:32 68° 278° (W) 14:49:20
ITAMSAT 1 26 May 14:35:45 14:40:18 33° 73° (ENE) 14:44:56 435.822/435.867
TISAT 1 26 May 14:45:28 14:48:33 19° 288° (WNW) 14:51:28 437.305
SRMSAT 26 May 15:05:24 15:10:49 38° 181° (S) 15:16:15 437.500
Gurwin Techsat 1B 26 May 15:08:55 15:14:11 71° 76° (ENE) 15:19:29 435.225
ITUPSAT 1 26 May 15:16:49 15:21:37 76° 283° (WNW) 15:26:24 437.325
DANDE 26 May 15:20:25 15:25:52 24° 292° (WNW) 15:31:51 436.750
BEESAT 26 May 15:25:01 15:29:44 59° 284° (WNW) 15:34:24 436.000
HORYU 2 26 May 15:25:24 15:27:13 13° 70° (ENE) 15:29:18 437.375
SWISSCUBE 26 May 15:33:35 15:38:06 42° 286° (WNW) 15:42:35 437.505
JUGNU 26 May 15:38:55 15:43:45 26° 193° (SSW) 15:48:32 437.505
KKS-1 26 May 15:39:25 15:43:14 28° 97° (E) 15:47:05 437.445
O/OREOS (USA 219) 26 May 15:44:06 15:48:12 35° 104° (ESE) 15:52:20 437.305
AO-7 26 May 16:09:14 16:17:02 49° 69° (ENE) 16:24:57 29.400- 29.500
ITAMSAT 1 26 May 16:16:00 16:19:52 20° 265° (W) 16:23:34 435.822/435.867
JAS-2 26 May 16:16:06 16:22:58 58° 76° (ENE) 16:29:04 435.910
Cosmos 2499 26 May 16:19:01 16:27:22 69° 277° (W) 16:35:05 435.465 / 435.565
STARS 26 May 16:44:35 16:49:01 75° 283° (WNW) 16:53:23 437.465
SRMSAT 26 May 16:54:33 16:59:38 30° 190° (S) 17:04:43 437.500
HORYU 2 26 May 16:59:16 17:03:32 42° 261° (W) 17:07:48 437.375
MOZHAYETS 4 26 May 17:04:51 17:07:49 18° 94° (E) 17:10:58
KKS-1 26 May 17:16:31 17:19:41 19° 288° (WNW) 17:22:41 437.445
O/OREOS (USA 219) 26 May 17:25:05 17:27:47 15° 298° (WNW) 17:30:15 437.305
JUGNU 26 May 17:29:54 17:32:19 12° 199° (SSW) 17:34:34 437.505
AO-7 26 May 18:03:05 18:10:03 28° 263° (W) 18:16:47 29.400- 29.500
JAS-2 26 May 18:03:35 18:08:12 18° 265° (W) 18:12:10 435.910
BEESAT 3 26 May 18:07:11 18:11:05 50° 114° (ESE) 18:15:03 437.485
RS-15 26 May 18:13:28 18:23:42 35° 51° (NE) 18:34:36 29.354- 29.394
CUTE-I 26 May 18:23:55 18:28:24 30° 72° (ENE) 18:33:00 437.470
YUBILEINY 26 May 18:27:27 18:33:30 22° 72° (ENE) 18:40:02 435.215
Cosmos 2491 26 May 18:28:05 18:29:05 10° 83° (E) 18:31:04 435.465 / 435.565
MOZHAYETS 4 26 May 18:41:05 18:45:05 30° 286° (WNW) 18:49:01
CUBESAT XI-V 26 May 18:42:28 18:45:05 15° 93° (E) 18:47:57 437.345
AIST 2 26 May 18:42:40 18:46:04 25° 111° (ESE) 18:49:36 435.215
Cubesat XI-IV 26 May 18:43:44 18:48:48 49° 74° (ENE) 18:53:55 437.490
SRMSAT 26 May 18:44:51 18:48:23 16° 198° (SSW) 18:51:48 437.500
BEESAT 2 26 May 18:55:16 18:59:13 48° 299° (WNW) 19:03:13 435.950
STRAND 1 26 May 19:48:31 19:53:08 33° 98° (E) 19:57:47 437.568
BEESAT 3 26 May 19:48:33 19:49:25 10° 309° (NW) 19:50:03 437.485
CUTE-I 26 May 20:04:10 20:08:29 24° 264° (W) 20:12:40 437.470
DOVE 4 26 May 20:15:17 20:16:36 11° 68° (ENE) 20:18:19 437.250
PRISM 26 May 20:15:38 20:19:48 87° 102° (ESE) 20:23:58 437.425
Cosmos 2491 26 May 20:16:13 20:25:00 84° 94° (E) 20:33:51 435.465 / 435.565
CUBESAT XI-V 26 May 20:18:20 20:22:40 37° 285° (WNW) 20:26:57 437.345
AIST 2 26 May 20:21:18 20:24:37 21° 304° (NW) 20:27:50 435.215
YUBILEINY 26 May 20:22:25 20:30:56 60° 268° (W) 20:39:24 435.215
RS-15 26 May 20:25:13 20:36:45 59° 249° (WSW) 20:48:32 29.354- 29.394
Cubesat XI-IV 26 May 20:26:14 20:29:12 14° 267° (W) 20:31:51 437.490
M-CUBED/EXP-1 PRIME 26 May 20:36:16 20:39:28 50° 104° (ESE) 20:42:46 437.505
BRITE-PL 26 May 20:42:03 20:46:52 61° 76° (ENE) 20:52:07 437.365/2234.400
AUBIESAT-1 26 May 20:44:46 20:48:01 57° 105° (ESE) 20:51:21 437.475
GOMX 1 26 May 20:46:44 20:51:23 41° 74° (ENE) 20:56:23 467.674
CANX-2 26 May 20:54:41 20:58:23 30° 75° (ENE) 21:02:07 2200.000
HO-68 26 May 20:56:52 21:03:40 49° 72° (ENE) 21:10:33 435.675
CUTE 1.7 + AOD 2 26 May 20:58:19 21:01:59 29° 75° (ENE) 21:05:43 437.475
AIST 1 26 May 21:10:29 21:14:38 57° 94° (E) 21:18:49
SEEDS 26 May 21:21:06 21:25:08 46° 76° (ENE) 21:29:12 437.485
STRAND 1 26 May 21:28:18 21:32:09 21° 289° (WNW) 21:35:49 437.568
CINEMA 3 26 May 21:29:52 21:34:19 36° 74° (ENE) 21:38:56 145.822/145.860
COMPASS 1 26 May 21:34:50 21:38:55 54° 77° (ENE) 21:43:00 437.405
UWE-3 26 May 21:37:13 21:39:50 16° 71° (ENE) 21:42:42 435.000/436.395/437.385
AAUSAT CUBESAT 2 26 May 21:47:12 21:51:20 67° 77° (ENE) 21:55:29 437.432
FUNcube-1 26 May 21:48:15 21:50:48 15° 72° (ENE) 21:53:33 145.935
DOVE 4 26 May 21:48:51 21:53:48 64° 260° (W) 21:59:00 437.250
Cosmos 2504 26 May 21:49:21 21:56:07 45° 80° (E) 22:03:03 435.465 / 435.565
DELFI C3 26 May 22:16:50 22:20:39 43° 76° (ENE) 22:24:29 145.870
Cosmos 2491 26 May 22:18:17 22:23:03 14° 292° (WNW) 22:27:05 435.465 / 435.565
CUBEBUG 2 26 May 22:23:20 22:28:03 71° 77° (ENE) 22:32:49 437.445
HUMSAT D 26 May 22:25:00 22:27:44 17° 72° (ENE) 22:30:38 437.325/437.525
BRITE-PL 26 May 22:25:03 22:26:00 10° 272° (W) 22:26:31 437.365/2234.400
GOMX 1 26 May 22:26:32 22:29:46 16° 269° (W) 22:32:50 467.674
ZACube-1 26 May 22:26:41 22:31:03 46° 76° (ENE) 22:35:28 437.345
UKube-1 26 May 22:30:35 22:33:41 20° 72° (ENE) 22:36:55 .
CANX-2 26 May 22:31:44 22:34:22 15° 266° (W) 22:36:49 2200.000
CUTE 1.7 + AOD 2 26 May 22:35:17 22:37:58 16° 266° (W) 22:40:25 437.475
DX 1 26 May 22:38:19 22:41:57 27° 73° (ENE) 22:45:41 434.975-435.025
Oscar 11 26 May 22:40:04 22:44:22 61° 260° (W) 22:48:40 145.826/435.025
HO-68 26 May 22:46:00 22:51:39 23° 265° (W) 22:57:01 435.675
VELOX 1 26 May 22:52:05 22:55:02 18° 72° (ENE) 22:58:08 145.980
ESTCUBE 1 26 May 22:56:04 22:56:52 11° 70° (ENE) 22:57:58 437.505/2401.250
CINEMA 3 26 May 23:08:12 23:11:38 18° 267° (W) 23:14:53 145.822/145.860
ISS 26 May 23:08:38 23:11:48 58° 130° (SE) 23:14:59 145.825
UWE-3 26 May 23:11:43 23:16:05 38° 262° (W) 23:20:26 435.000/436.395/437.385
AISAT 26 May 23:22:15 23:26:27 45° 75° (ENE) 23:30:43 437.250
FUNcube-1 26 May 23:22:36 23:26:51 37° 262° (W) 23:31:05 145.935
50 SAT 26 May 23:23:48 23:27:40 49° 76° (ENE) 23:31:33 437.505
ANTELSAT 26 May 23:24:02 23:27:48 29° 97° (E) 23:31:32 437.575/2403.000
QB50P2 26 May 23:27:01 23:28:42 12° 93° (E) 23:30:39 145.880/145.840
POPSAT HIP 1 26 May 23:38:24 23:41:10 17° 94° (E) 23:44:05 437.405
DUCHIFAT 1 26 May 23:40:29 23:43:19 18° 95° (E) 23:46:17 145.980
Cosmos 2504 26 May 23:43:49 23:49:11 22° 272° (W) 23:54:18 435.465 / 435.565
TIGRISAT 26 May 23:56:32 00:00:52 77° 101° (ESE) 00:05:07 435.000
HUMSAT D 26 May 23:59:31 00:03:18 28° 263° (W) 00:07:00 437.325/437.525
BUGSAT 1 27 May 00:04:12 00:07:36 24° 96° (E) 00:11:04 437.445
ZACube-1 27 May 00:05:53 00:07:40 12° 268° (W) 00:09:07 437.345
UKube-1 27 May 00:06:09 00:09:42 24° 264° (W) 00:13:09 .
PCSat 27 May 00:13:50 00:17:20 18° 107° (ESE) 00:21:05 145.827
DX 1 27 May 00:15:14 00:18:13 18° 265° (W) 00:21:04 434.975-435.025
UNISAT 6 27 May 00:16:56 00:21:12 55° 284° (WNW) 00:25:22 437.425
QB50P1 27 May 00:21:15 00:25:30 65° 101° (E) 00:29:42 145.935-145.965
POLYITAN 1 27 May 00:23:07 00:27:23 71° 100° (E) 00:31:36 437.675
CUBEBUG 1 27 May 00:25:48 00:30:05 64° 259° (W) 00:34:25 437.445
DANDE 27 May 00:27:34 00:33:43 29° 70° (ENE) 00:38:50 436.750
VELOX 1 27 May 00:27:35 00:31:25 28° 263° (W) 00:35:11 145.980
ESTCUBE 1 27 May 00:29:01 00:33:22 49° 260° (W) 00:37:43 437.505/2401.250
VERMONT LUNAR 27 May 00:32:53 00:35:15 19° 141° (SE) 00:37:41 437.305
ISS 27 May 00:47:59 00:48:31 10° 325° (NW) 00:48:54 145.825
GONETS M04 27 May 00:51:04 00:59:18 45° 79° (ENE) 01:07:34
NANOSAT C BR1 27 May 00:52:47 00:56:54 47° 285° (WNW) 01:00:58 145.865
CUSAT 1 27 May 01:00:00 01:06:44 75° 80° (E) 01:11:46 437.405
QB50P2 27 May 01:00:50 01:04:46 36° 285° (WNW) 01:08:38 145.880/145.840
ANTELSAT 27 May 01:01:37 01:04:22 16° 289° (WNW) 01:06:55 437.575/2403.000
AISAT 27 May 01:02:01 01:03:18 11° 268° (W) 01:04:16 437.250
SPROUT 27 May 01:05:18 01:09:36 90° 82° (E) 01:13:57 437.525
POPSAT HIP 1 27 May 01:13:27 01:17:03 26° 287° (WNW) 01:20:34 437.405
DUCHIFAT 1 27 May 01:15:34 01:19:08 25° 286° (WNW) 01:22:34 145.980
TISAT 1 27 May 01:29:23 01:33:35 62° 259° (W) 01:37:47 437.305
BUGSAT 1 27 May 01:39:48 01:42:57 20° 288° (WNW) 01:45:56 437.445
PCSat 27 May 01:55:23 02:00:28 41° 298° (WNW) 02:05:34 145.827
O/OREOS (USA 219) 27 May 02:01:21 02:04:48 22° 65° (ENE) 02:08:21 437.305
VERMONT LUNAR 27 May 02:09:13 02:12:19 42° 332° (NNW) 02:15:24 437.305
DANDE 27 May 02:10:36 02:17:00 33° 272° (W) 02:21:58 436.750
ITUPSAT 1 27 May 02:16:42 02:21:20 56° 75° (ENE) 02:26:00 437.325
Cosmos 2499 27 May 02:19:31 02:25:01 25° 75° (ENE) 02:30:53 435.465 / 435.565
BEESAT 27 May 02:24:22 02:29:05 71° 77° (ENE) 02:33:50 436.000
SWISSCUBE 27 May 02:32:49 02:37:34 83° 256° (WSW) 02:42:20 437.505
KKS-1 27 May 02:33:11 02:34:31 11° 70° (ENE) 02:36:08 437.445
PHONESAT 2.4 27 May 02:36:00 02:39:27 65° 147° (SSE) 02:42:55 2401.200-2431.200
Oscar 19 27 May 02:41:15 02:46:21 63° 101° (ESE) 02:51:25 437.125/150
GONETS M04 27 May 02:48:32 02:55:53 29° 272° (W) 03:02:52
SO-50 27 May 02:55:43 02:59:47 33° 112° (ESE) 03:04:03 436.795
ITAMSAT 1 27 May 02:56:02 02:59:54 22° 95° (E) 03:03:56 435.822/435.867
BEESAT 2 27 May 03:22:41 03:24:23 13° 53° (NE) 03:26:16 435.950
Gurwin Techsat 1B 27 May 03:32:19 03:37:29 51° 100° (E) 03:42:39 435.225
STARS 27 May 03:34:37 03:38:43 39° 74° (ENE) 03:42:53 437.465
O/OREOS (USA 219) 27 May 03:40:37 03:44:08 22° 257° (WSW) 03:47:32 437.305
VERMONT LUNAR 27 May 03:48:43 03:50:04 12° 348° (NNW) 03:51:22 437.305
KKS-1 27 May 04:06:29 04:10:48 46° 260° (W) 04:15:07 437.445
BEESAT 3 27 May 04:09:57 04:13:57 59° 62° (ENE) 04:17:52 437.485
Cosmos 2499 27 May 04:11:46 04:18:17 40° 269° (W) 04:24:53 435.465 / 435.565
PHONESAT 2.4 27 May 04:15:01 04:17:47 21° 340° (NNW) 04:20:31 2401.200-2431.200
AO-7 27 May 04:19:37 04:25:54 24° 96° (E) 04:32:31 29.400- 29.500
Oscar 19 27 May 04:23:41 04:25:15 11° 292° (WNW) 04:26:27 437.125/150
ITAMSAT 1 27 May 04:34:48 04:39:26 32° 288° (WNW) 04:44:00 435.822/435.867
SO-50 27 May 04:36:57 04:40:25 20° 307° (NW) 04:43:50 436.795
AIST 2 27 May 04:48:44 04:52:29 31° 59° (ENE) 04:56:11 435.215
HORYU 2 27 May 04:57:12 05:01:35 64° 101° (E) 05:05:58 437.375
BEESAT 2 27 May 04:58:52 05:02:42 39° 247° (WSW) 05:06:26 435.950
STARS 27 May 05:13:14 05:15:21 13° 267° (W) 05:17:13 437.465
Gurwin Techsat 1B 27 May 05:14:09 05:17:06 15° 291° (WNW) 05:19:46 435.225
JAS-2 27 May 05:17:33 05:22:46 90° 288° (WNW) 05:28:18 435.910
MOZHAYETS 4 27 May 05:35:20 05:39:54 74° 259° (W) 05:44:28
PHONESAT 2.4 27 May 05:55:58 05:56:45 11° 356° (N) 05:57:32 2401.200-2431.200
AO-7 27 May 06:10:55 06:19:04 57° 290° (WNW) 06:27:08 29.400- 29.500
AIST 2 27 May 06:28:22 06:30:48 15° 250° (WSW) 06:33:01 435.215
Cosmos 2491 27 May 06:36:17 06:43:37 30° 75° (ENE) 06:51:09 435.465 / 435.565
CUTE-I 27 May 06:48:20 06:52:17 21° 95° (E) 06:56:24 437.470
